Simultaneous Nadir Overpasses (SNOs) Predictions

Prediction of SNOs near US between AQUA and NPP Satellite Orbit:

Table of predicted SNOs near US for the next 10.0 days since TLE Epoch: 10/5/2018
Index Date (AQUA) Time (AQUA) AQUA Lat,Lon Date (NPP) Time (NPP) NPP Lat,Lon Distance(km) Time Diff (sec)
1 10/07/2018 18:17:03 49.98, -80.20 10/07/2018 18:10:57 49.70, -81.70 111.60 366
2 10/07/2018 19:55:56 49.97,-104.92 10/07/2018 19:52:25 49.59,-107.03 156.85 211
3 10/07/2018 21:31:05 36.61,-125.00 10/07/2018 21:30:03 36.16,-127.52 231.33 62
4 10/10/2018 09:23:46 23.12,-113.54 10/10/2018 09:16:17 23.22,-113.94 42.34 449
5 10/13/2018 06:30:24 46.45, -65.04 10/13/2018 06:30:55 46.84, -67.01 156.52 31
6 10/13/2018 08:08:19 49.89, -88.40 10/13/2018 08:11:23 50.41, -90.86 184.96 184
7 10/13/2018 09:47:12 49.90,-113.12 10/13/2018 09:52:51 50.52,-116.19 229.36 339
8 10/15/2018 19:06:28 49.94, -92.56 10/15/2018 19:01:39 49.61, -94.36 135.10 289




NCC Satellite Simultaneous Nadir Overpasses (SNOs) Prediction Service
